This is the latest recevied weather packets stored in our database for station/object KQ4DLB-13. If no packets are shown the sender has not sent any weather packets the latest 10 day(s).
| Time | Temp. | Humidity | Pressure | Rain* | Wind** | Luminosity | Snow |
|---|---|---|---|---|---|---|---|
| 1777528502 | 11.67° C | 83% | 990.7 hPa | 0 mm | - | - | - |
| 1777528202 | 12.22° C | 83% | 990.8 hPa | 0 mm | - | - | - |
| 1777527902 | 12.22° C | 83% | 990.8 hPa | 0 mm | - | - | - |
| 1777527602 | 12.22° C | 83% | 990.8 hPa | 0 mm | - | - | - |
| 1777527302 | 12.22° C | 83% | 990.8 hPa | 0 mm | - | - | - |
| 1777527002 | 12.22° C | 83% | 990.8 hPa | 0 mm | - | - | - |
| 1777526702 | 12.22° C | 84% | 990.8 hPa | 0 mm | - | - | - |
| 1777526402 | 12.22° C | 84% | 990.8 hPa | 0 mm | - | - | - |
| 1777526103 | 12.22° C | 84% | 990.7 hPa | 0 mm | - | - | - |
| 1777525802 | 12.22° C | 84% | 990.6 hPa | 0 mm | - | - | - |
| 1777525502 | 12.78° C | 83% | 990.3 hPa | 0 mm | - | - | - |
| 1777525202 | 12.78° C | 83% | 990.2 hPa | 0 mm | - | - | - |
| 1777524902 | 12.78° C | 83% | 990.2 hPa | 0 mm | - | - | - |
| 1777524602 | 12.78° C | 82% | 990.2 hPa | 0 mm | - | - | - |
| 1777524302 | 12.78° C | 82% | 990.3 hPa | 0 mm | - | - | - |
| 1777524003 | 12.78° C | 82% | 990.2 hPa | 0 mm | - | - | - |
| 1777523702 | 12.78° C | 81% | 990 hPa | 0 mm | - | - | - |
| 1777523403 | 13.33° C | 80% | 989.9 hPa | 0 mm | - | - | - |
| 1777523102 | 13.33° C | 79% | 989.8 hPa | 0 mm | - | - | - |
| 1777522802 | 13.89° C | 78% | 989.7 hPa | 0 mm | - | - | - |
| 1777522502 | 14.44° C | 77% | 989.7 hPa | 0 mm | - | - | - |
| 1777522202 | 14.44° C | 75% | 989.9 hPa | 0 mm | - | - | - |
| 1777521903 | 14.44° C | 72% | 989.9 hPa | 0 mm | - | - | - |
| 1777521603 | 14.44° C | 72% | 989.6 hPa | 0 mm | - | - | - |
| 1777521303 | 14.44° C | 74% | 989.7 hPa | 0 mm | - | - | - |
* Rain latest hour (hover to see other rain measurements)
** Current wind speed in m/s (hover to see current wind gust speed)